Time,TemperatureF,DewpointF,PressureIn,WindDirection,WindDirectionDegrees,WindSpeedMPH,WindSpeedGustMPH,Humidity,HourlyPrecipIn,Conditions,Clouds,dailyrainin,SoftwareType,DateUTC
2013-05-18 00:03:00,70.0,62.0,-100.00,SSW,196,4.0,10.0,74,0.13,,,0.07,,2013-05-18 04:03:00,
2013-05-18 00:12:00,66.0,62.0,-100.00,SSW,209,1.0,4.0,85,0.21,,,0.11,,2013-05-18 04:12:00,
2013-05-18 00:23:00,66.0,62.0,-100.00,SSW,209,1.0,4.0,85,0.21,,,0.11,,2013-05-18 04:23:00,
2013-05-18 00:33:00,65.0,62.0,-100.00,SE,136,2.0,3.0,89,0.13,,,0.20,,2013-05-18 04:33:00,
2013-05-18 00:43:00,65.0,62.0,-100.00,SE,136,2.0,3.0,89,0.13,,,0.20,,2013-05-18 04:43:00,
2013-05-18 00:53:00,66.0,64.0,-100.00,West,268,2.0,5.0,93,0.01,,,0.23,,2013-05-18 04:53:00,
2013-05-18 01:02:00,66.0,64.0,-100.00,West,268,2.0,5.0,93,0.01,,,0.23,,2013-05-18 05:02:00,
2013-05-18 01:13:00,67.0,64.0,-100.00,NNE,16,3.0,7.0,91,0.01,,,0.25,,2013-05-18 05:13:00,
2013-05-18 01:22:00,67.0,64.0,-100.00,NNE,16,3.0,7.0,91,0.01,,,0.25,,2013-05-18 05:22:00,
2013-05-18 01:32:00,67.0,64.0,-100.00,NNW,346,6.0,9.0,92,0.00,,,0.29,,2013-05-18 05:32:00,
2013-05-18 01:42:00,67.0,64.0,-100.00,NNW,346,6.0,9.0,92,0.00,,,0.29,,2013-05-18 05:42:00,
2013-05-18 01:52:00,67.0,65.0,-100.00,ENE,75,4.0,8.0,93,0.00,,,0.29,,2013-05-18 05:52:00,
2013-05-18 02:02:00,67.0,65.0,-100.00,ESE,109,3.0,6.0,94,0.01,,,0.30,,2013-05-18 06:02:00,
2013-05-18 02:11:00,67.0,65.0,-100.00,ESE,109,3.0,6.0,94,0.01,,,0.30,,2013-05-18 06:11:00,
2013-05-18 02:22:00,67.0,65.0,-100.00,ESE,109,3.0,6.0,94,0.01,,,0.30,,2013-05-18 06:22:00,
2013-05-18 02:32:00,66.0,65.0,-100.00,SE,134,2.0,4.0,94,0.00,,,0.30,,2013-05-18 06:32:00,
2013-05-18 02:42:00,66.0,65.0,-100.00,SE,134,2.0,4.0,94,0.00,,,0.30,,2013-05-18 06:42:00,
2013-05-18 02:52:00,66.0,64.0,-100.00,SW,216,1.0,4.0,94,0.00,,,0.30,,2013-05-18 06:52:00,
2013-05-18 03:01:00,65.0,63.0,-100.00,SSW,203,1.0,2.0,94,0.00,,,0.30,,2013-05-18 07:01:00,
2013-05-18 03:12:00,65.0,63.0,-100.00,SSW,203,1.0,2.0,94,0.00,,,0.30,,2013-05-18 07:12:00,
2013-05-18 03:22:00,65.0,63.0,-100.00,SSW,203,1.0,2.0,94,0.00,,,0.30,,2013-05-18 07:22:00,
2013-05-18 03:32:00,64.0,62.0,-100.00,South,174,1.0,2.0,94,0.00,,,0.30,,2013-05-18 07:32:00,
2013-05-18 03:42:00,64.0,62.0,-100.00,South,174,1.0,2.0,94,0.00,,,0.30,,2013-05-18 07:42:00,
2013-05-18 03:53:00,63.0,61.0,-100.00,SW,217,2.0,5.0,92,0.00,,,0.30,,2013-05-18 07:53:00,
2013-05-18 04:01:00,63.0,61.0,-100.00,SW,217,2.0,5.0,92,0.00,,,0.30,,2013-05-18 08:01:00,
2013-05-18 04:11:00,62.0,60.0,-100.00,West,274,1.0,2.0,91,0.00,,,0.30,,2013-05-18 08:11:00,
2013-05-18 04:21:00,62.0,60.0,-100.00,West,274,1.0,2.0,91,0.00,,,0.30,,2013-05-18 08:21:00,
2013-05-18 04:32:00,61.0,58.0,-100.00,ESE,107,2.0,5.0,90,0.00,,,0.30,,2013-05-18 08:32:00,
2013-05-18 04:42:00,61.0,58.0,-100.00,ESE,107,2.0,5.0,90,0.00,,,0.30,,2013-05-18 08:42:00,
2013-05-18 04:52:00,61.0,58.0,-100.00,SE,145,1.0,3.0,90,0.00,,,0.30,,2013-05-18 08:52:00,
2013-05-18 05:02:00,61.0,58.0,-100.00,SE,145,1.0,3.0,90,0.00,,,0.30,,2013-05-18 09:02:00,
2013-05-18 05:12:00,60.0,58.0,-100.00,SSW,208,0.0,2.0,93,0.00,,,0.30,,2013-05-18 09:12:00,
2013-05-18 05:22:00,60.0,58.0,-100.00,SSW,208,0.0,2.0,93,0.00,,,0.30,,2013-05-18 09:22:00,
2013-05-18 05:33:00,61.0,58.0,-100.00,SW,219,1.0,2.0,92,0.00,,,0.30,,2013-05-18 09:33:00,
2013-05-18 05:43:00,61.0,58.0,-100.00,SW,219,1.0,2.0,92,0.00,,,0.30,,2013-05-18 09:43:00,
2013-05-18 05:53:00,61.0,59.0,-100.00,ESE,106,2.0,4.0,94,0.00,,,0.30,,2013-05-18 09:53:00,
2013-05-18 06:03:00,61.0,59.0,-100.00,ESE,106,2.0,4.0,94,0.00,,,0.30,,2013-05-18 10:03:00,
2013-05-18 06:12:00,60.0,59.0,-100.00,SE,126,2.0,2.0,94,0.00,,,0.30,,2013-05-18 10:12:00,
2013-05-18 06:23:00,60.0,58.0,-100.00,South,169,1.0,4.0,94,0.00,,,0.30,,2013-05-18 10:23:00,
2013-05-18 06:33:00,60.0,58.0,-100.00,South,169,1.0,4.0,94,0.00,,,0.30,,2013-05-18 10:33:00,
2013-05-18 06:42:00,60.0,58.0,-100.00,South,169,1.0,4.0,94,0.00,,,0.30,,2013-05-18 10:42:00,
2013-05-18 06:53:00,60.0,59.0,-100.00,SE,124,1.0,2.0,95,0.00,,,0.30,,2013-05-18 10:53:00,
2013-05-18 07:03:00,60.0,59.0,-100.00,SE,124,1.0,2.0,95,0.00,,,0.30,,2013-05-18 11:03:00,
2013-05-18 07:12:00,61.0,59.0,-100.00,ESE,117,1.0,2.0,95,0.00,,,0.30,,2013-05-18 11:12:00,
2013-05-18 07:22:00,61.0,59.0,-100.00,ESE,117,1.0,2.0,95,0.00,,,0.30,,2013-05-18 11:22:00,
2013-05-18 07:33:00,61.0,60.0,-100.00,ESE,120,2.0,4.0,95,0.00,,,0.30,,2013-05-18 11:33:00,
2013-05-18 07:42:00,61.0,60.0,-100.00,ESE,120,2.0,4.0,95,0.00,,,0.30,,2013-05-18 11:42:00,
2013-05-18 07:52:00,62.0,60.0,-100.00,ESE,110,1.0,2.0,95,0.00,,,0.30,,2013-05-18 11:52:00,
2013-05-18 08:02:00,63.0,61.0,-100.00,ESE,114,2.0,4.0,95,0.00,,,0.30,,2013-05-18 12:02:00,
2013-05-18 08:12:00,63.0,61.0,-100.00,ESE,114,2.0,4.0,95,0.00,,,0.30,,2013-05-18 12:12:00,
2013-05-18 08:23:00,63.0,61.0,-100.00,ESE,114,2.0,4.0,95,0.00,,,0.30,,2013-05-18 12:23:00,
2013-05-18 08:33:00,63.0,62.0,-100.00,ESE,123,2.0,3.0,94,0.00,,,0.30,,2013-05-18 12:33:00,
2013-05-18 08:42:00,63.0,62.0,-100.00,ESE,123,2.0,3.0,94,0.00,,,0.30,,2013-05-18 12:42:00,
2013-05-18 08:52:00,65.0,62.0,-100.00,ESE,114,2.0,3.0,92,0.00,,,0.30,,2013-05-18 12:52:00,
2013-05-18 09:01:00,65.0,62.0,-100.00,ESE,114,2.0,3.0,92,0.00,,,0.30,,2013-05-18 13:01:00,
2013-05-18 09:12:00,65.0,62.0,-100.00,ESE,110,2.0,3.0,89,0.00,,,0.30,,2013-05-18 13:12:00,
2013-05-18 09:21:00,66.0,62.0,-100.00,ESE,117,2.0,5.0,87,0.00,,,0.30,,2013-05-18 13:21:00,
2013-05-18 09:33:00,66.0,62.0,-100.00,ESE,117,2.0,5.0,87,0.00,,,0.30,,2013-05-18 13:33:00,
2013-05-18 09:40:00,69.0,63.0,-100.00,SE,127,3.0,6.0,79,0.00,,,0.30,,2013-05-18 13:40:00,
2013-05-18 09:43:00,66.0,62.0,-100.00,ESE,117,2.0,5.0,87,0.00,,,0.30,,2013-05-18 13:43:00,
2013-05-18 09:53:00,67.0,62.0,-100.00,SSE,154,2.0,6.0,85,0.00,,,0.30,,2013-05-18 13:53:00,
2013-05-18 10:03:00,67.0,62.0,-100.00,SSE,154,2.0,6.0,85,0.00,,,0.30,,2013-05-18 14:03:00,
2013-05-18 10:12:00,69.0,63.0,-100.00,SE,127,3.0,6.0,79,0.00,,,0.30,,2013-05-18 14:12:00,
2013-05-18 10:22:00,69.0,63.0,-100.00,SE,127,3.0,6.0,79,0.00,,,0.30,,2013-05-18 14:22:00,
2013-05-18 10:33:00,69.0,63.0,-100.00,SE,127,3.0,6.0,79,0.00,,,0.30,,2013-05-18 14:33:00,
2013-05-18 10:54:00,70.0,63.0,-100.00,SE,140,2.0,3.0,78,0.00,,,0.30,,2013-05-18 14:54:00,
2013-05-18 11:03:00,70.0,63.0,-100.00,SE,140,2.0,3.0,78,0.00,,,0.30,,2013-05-18 15:03:00,
2013-05-18 11:13:00,71.0,63.0,-100.00,ESE,119,1.0,2.0,75,0.00,,,0.30,,2013-05-18 15:13:00,
2013-05-18 11:23:00,71.0,63.0,-100.00,ESE,119,1.0,2.0,75,0.00,,,0.30,,2013-05-18 15:23:00,
2013-05-18 11:33:00,71.0,64.0,-100.00,SE,131,1.0,3.0,78,0.00,,,0.30,,2013-05-18 15:33:00,
2013-05-18 11:43:00,71.0,64.0,-100.00,SE,131,1.0,3.0,78,0.00,,,0.30,,2013-05-18 15:43:00,
2013-05-18 11:54:00,72.0,64.0,-100.00,East,96,2.0,3.0,75,0.00,,,0.30,,2013-05-18 15:54:00,
2013-05-18 12:03:00,72.0,64.0,-100.00,East,96,2.0,3.0,75,0.00,,,0.30,,2013-05-18 16:03:00,
2013-05-18 12:13:00,72.0,64.0,-100.00,East,97,2.0,3.0,76,0.00,,,0.30,,2013-05-18 16:13:00,
2013-05-18 12:22:00,72.0,64.0,-100.00,East,97,2.0,3.0,76,0.00,,,0.30,,2013-05-18 16:22:00,
2013-05-18 12:33:00,72.0,63.0,-100.00,SE,133,0.0,2.0,73,0.00,,,0.30,,2013-05-18 16:33:00,
2013-05-18 12:42:00,72.0,63.0,-100.00,SE,133,0.0,2.0,73,0.00,,,0.30,,2013-05-18 16:42:00,
2013-05-18 12:52:00,72.0,64.0,-100.00,East,90,2.0,3.0,76,0.00,,,0.30,,2013-05-18 16:52:00,
2013-05-18 13:02:00,72.0,64.0,-100.00,East,90,2.0,3.0,76,0.00,,,0.30,,2013-05-18 17:02:00,
2013-05-18 13:12:00,72.0,64.0,-100.00,East,97,2.0,3.0,75,0.00,,,0.30,,2013-05-18 17:12:00,
2013-05-18 13:22:00,72.0,64.0,-100.00,East,97,2.0,3.0,75,0.00,,,0.30,,2013-05-18 17:22:00,
2013-05-18 13:33:00,74.0,65.0,-100.00,ESE,103,2.0,3.0,75,0.00,,,-99.99,,2013-05-18 17:33:00,
2013-05-18 13:42:00,74.0,65.0,-100.00,ESE,103,2.0,3.0,75,0.00,,,-99.99,,2013-05-18 17:42:00,
2013-05-18 13:52:00,74.0,64.0,-100.00,ESE,110,1.0,2.0,71,0.00,,,-99.99,,2013-05-18 17:52:00,
2013-05-18 14:01:00,74.0,64.0,-100.00,ESE,110,1.0,2.0,71,0.00,,,-99.99,,2013-05-18 18:01:00,
2013-05-18 14:12:00,74.0,65.0,-100.00,ESE,109,2.0,3.0,74,0.00,,,-99.99,,2013-05-18 18:12:00,
2013-05-18 14:21:00,74.0,65.0,-100.00,ESE,109,2.0,3.0,74,0.00,,,-99.99,,2013-05-18 18:21:00,
2013-05-18 14:32:00,75.0,66.0,-100.00,ESE,107,1.0,2.0,74,0.00,,,-99.99,,2013-05-18 18:32:00,
2013-05-18 14:40:00,73.0,66.0,-100.00,ESE,106,1.0,2.0,79,0.00,,,-99.99,,2013-05-18 18:40:00,
2013-05-18 14:42:00,75.0,66.0,-100.00,ESE,107,1.0,2.0,74,0.00,,,-99.99,,2013-05-18 18:42:00,
2013-05-18 14:52:00,73.0,66.0,-100.00,ESE,102,1.0,2.0,77,0.00,,,-99.99,,2013-05-18 18:52:00,
2013-05-18 15:02:00,73.0,66.0,-100.00,ESE,106,1.0,2.0,79,0.00,,,-99.99,,2013-05-18 19:02:00,
2013-05-18 15:12:00,73.0,66.0,-100.00,ESE,106,1.0,2.0,79,0.00,,,-99.99,,2013-05-18 19:12:00,
2013-05-18 15:22:00,73.0,66.0,-100.00,ESE,106,1.0,2.0,79,0.00,,,-99.99,,2013-05-18 19:22:00,
2013-05-18 15:32:00,73.0,66.0,-100.00,ESE,106,1.0,2.0,79,0.00,,,-99.99,,2013-05-18 19:32:00,
2013-05-18 15:52:00,67.0,65.0,-100.00,SSE,162,0.0,1.0,93,0.52,,,-99.99,,2013-05-18 19:52:00,
2013-05-18 16:02:00,67.0,65.0,-100.00,SSE,162,0.0,1.0,93,0.52,,,-99.99,,2013-05-18 20:02:00,
2013-05-18 16:11:00,67.0,65.0,-100.00,North,7,1.0,1.0,95,0.11,,,-99.99,,2013-05-18 20:11:00,
2013-05-18 16:22:00,67.0,65.0,-100.00,North,7,1.0,1.0,95,0.11,,,-99.99,,2013-05-18 20:22:00,
2013-05-18 16:32:00,67.0,66.0,-100.00,WSW,250,1.0,2.0,95,0.06,,,-99.99,,2013-05-18 20:32:00,
2013-05-18 16:42:00,67.0,66.0,-100.00,WSW,250,1.0,2.0,95,0.06,,,-99.99,,2013-05-18 20:42:00,
2013-05-18 16:52:00,68.0,67.0,-100.00,WNW,287,2.0,2.0,96,0.03,,,-99.99,,2013-05-18 20:52:00,
2013-05-18 17:01:00,68.0,67.0,-100.00,WNW,287,2.0,2.0,96,0.03,,,-99.99,,2013-05-18 21:01:00,
2013-05-18 17:12:00,68.0,66.0,-100.00,WSW,253,1.0,2.0,96,0.00,,,-99.99,,2013-05-18 21:12:00,
2013-05-18 17:20:00,70.0,68.0,-100.00,ESE,114,1.0,2.0,94,0.00,,,-99.99,,2013-05-18 21:20:00,
2013-05-18 17:22:00,68.0,66.0,-100.00,WSW,253,1.0,2.0,96,0.00,,,-99.99,,2013-05-18 21:22:00,
2013-05-18 17:33:00,69.0,67.0,-100.00,SSE,167,0.0,1.0,95,0.00,,,-99.99,,2013-05-18 21:33:00,
2013-05-18 17:43:00,69.0,67.0,-100.00,SSE,167,0.0,1.0,95,0.00,,,-99.99,,2013-05-18 21:43:00,
2013-05-18 17:53:00,70.0,68.0,-100.00,ESE,114,1.0,2.0,94,0.00,,,-99.99,,2013-05-18 21:53:00,
2013-05-18 18:03:00,70.0,68.0,-100.00,ESE,114,1.0,2.0,94,0.00,,,-99.99,,2013-05-18 22:03:00,
2013-05-18 18:13:00,70.0,68.0,-100.00,ESE,114,1.0,2.0,94,0.00,,,-99.99,,2013-05-18 22:13:00,
2013-05-18 18:33:00,70.0,66.0,-100.00,ESE,117,0.0,1.0,88,0.00,,,-99.99,,2013-05-18 22:33:00,
2013-05-18 18:42:00,70.0,66.0,-100.00,ESE,117,0.0,1.0,88,0.00,,,-99.99,,2013-05-18 22:42:00,
2013-05-18 18:53:00,71.0,67.0,-100.00,ESE,104,1.0,2.0,88,0.00,,,-99.99,,2013-05-18 22:53:00,
2013-05-18 19:02:00,71.0,67.0,-100.00,ESE,104,1.0,2.0,88,0.00,,,-99.99,,2013-05-18 23:02:00,
2013-05-18 19:12:00,72.0,67.0,-100.00,ESE,117,0.0,1.0,85,0.00,,,-99.99,,2013-05-18 23:12:00,
2013-05-18 19:22:00,70.0,66.0,-100.00,SSE,151,1.0,2.0,86,0.00,,,-99.99,,2013-05-18 23:22:00,
2013-05-18 19:32:00,70.0,66.0,-100.00,SSE,151,1.0,2.0,86,0.00,,,-99.99,,2013-05-18 23:32:00,
2013-05-18 19:42:00,70.0,66.0,-100.00,SSE,151,1.0,2.0,86,0.00,,,-99.99,,2013-05-18 23:42:00,
2013-05-18 19:53:00,69.0,66.0,-100.00,South,188,1.0,2.0,90,0.00,,,-99.99,,2013-05-18 23:53:00,
2013-05-18 20:01:00,69.0,66.0,-100.00,South,188,1.0,2.0,90,0.00,,,-99.99,,2013-05-19 00:01:00,
2013-05-18 20:12:00,68.0,66.0,-100.00,South,178,1.0,1.0,92,0.00,,,-99.99,,2013-05-19 00:12:00,
2013-05-18 20:22:00,68.0,66.0,-100.00,South,178,1.0,1.0,92,0.00,,,-99.99,,2013-05-19 00:22:00,
2013-05-18 20:32:00,68.0,66.0,-100.00,SSE,151,2.0,4.0,93,0.00,,,-99.99,,2013-05-19 00:32:00,
2013-05-18 20:41:00,68.0,66.0,-100.00,SSE,151,2.0,4.0,93,0.00,,,-99.99,,2013-05-19 00:41:00,
2013-05-18 20:52:00,67.0,65.0,-100.00,SSW,205,0.0,1.0,93,0.00,,,-99.99,,2013-05-19 00:52:00,
2013-05-18 21:01:00,67.0,65.0,-100.00,SSW,205,0.0,1.0,93,0.00,,,-99.99,,2013-05-19 01:01:00,
2013-05-18 21:11:00,67.0,65.0,-100.00,South,189,0.0,2.0,93,0.00,,,-99.99,,2013-05-19 01:11:00,
2013-05-18 21:22:00,67.0,65.0,-100.00,South,189,0.0,2.0,93,0.00,,,-99.99,,2013-05-19 01:22:00,
2013-05-18 21:32:00,67.0,65.0,-100.00,ESE,106,0.0,2.0,94,0.00,,,-99.99,,2013-05-19 01:32:00,
2013-05-18 21:42:00,67.0,65.0,-100.00,WSW,248,0.0,1.0,94,0.00,,,-99.99,,2013-05-19 01:42:00,
2013-05-18 21:52:00,67.0,65.0,-100.00,WSW,248,0.0,1.0,94,0.00,,,-99.99,,2013-05-19 01:52:00,
2013-05-18 22:02:00,67.0,65.0,-100.00,WSW,248,0.0,1.0,94,0.00,,,-99.99,,2013-05-19 02:02:00,
2013-05-18 22:11:00,67.0,65.0,-100.00,SSE,167,0.0,1.0,94,0.00,,,-99.99,,2013-05-19 02:11:00,
2013-05-18 22:22:00,67.0,65.0,-100.00,SSE,167,0.0,1.0,94,0.00,,,-99.99,,2013-05-19 02:22:00,
2013-05-18 22:32:00,67.0,65.0,-100.00,South,189,0.0,1.0,94,0.00,,,-99.99,,2013-05-19 02:32:00,
2013-05-18 22:42:00,67.0,65.0,-100.00,South,189,0.0,1.0,94,0.00,,,-99.99,,2013-05-19 02:42:00,
2013-05-18 22:52:00,67.0,65.0,-100.00,SW,224,1.0,2.0,95,0.04,,,-99.99,,2013-05-19 02:52:00,
2013-05-18 23:01:00,67.0,65.0,-100.00,SW,224,1.0,2.0,95,0.04,,,-99.99,,2013-05-19 03:01:00,
2013-05-18 23:11:00,67.0,65.0,-100.00,SSE,164,0.0,1.0,95,0.09,,,-99.99,,2013-05-19 03:11:00,
2013-05-18 23:22:00,67.0,65.0,-100.00,SSE,164,0.0,1.0,95,0.09,,,-99.99,,2013-05-19 03:22:00,
2013-05-18 23:33:00,67.0,65.0,-100.00,ESE,117,0.0,2.0,95,0.00,,,-99.99,,2013-05-19 03:33:00,
2013-05-18 23:40:00,65.0,63.0,-100.00,WSW,244,4.0,7.0,93,0.03,,,-99.99,,2013-05-19 03:40:00,
2013-05-18 23:42:00,67.0,65.0,-100.00,ESE,117,0.0,2.0,95,0.00,,,-99.99,,2013-05-19 03:42:00,
2013-05-18 23:53:00,67.0,65.0,-100.00,West,270,4.0,8.0,95,0.03,,,-99.99,,2013-05-19 03:53:00,